GW3733 Weather Reports


time (UTC)temp
F
wind
direction
speed
knots
gust
knots
rain 1hr
in
rain 24hr
in
rain mn
in
humidity
%
barometer
mb
20260906214144 76 349 2.6 2.6 0.00 0.00 0.00 60 1012.2
20260906213643 76 47 2.6 2.6 0.00 0.00 0.00 65 1012.0
20260906213138 77 316 1.7 1.7 0.00 0.00 0.00 61 1012.2
20260906212635 76 2 0.0 0.9 0.00 0.00 0.00 65 1012.1
20260906212131 76 12 0.0 0.9 0.00 0.00 0.00 59 1012.2
20260906211631 76 3 0.0 0.0 0.00 0.00 0.00 61 1011.9
20260906211126 76 348 0.0 0.0 0.00 0.00 0.00 58 1012.3
20260906210622 76 11 0.9 0.9 0.00 0.00 0.00 56 1012.3
20260906210116 76 5 0.9 0.9 0.00 0.00 0.00 58 1012.1
20260906205612 76 351 0.0 0.9 0.00 0.00 0.00 58 1012.0
20260906205108 77 355 0.0 0.0 0.00 0.00 0.00 57 1011.8
20260906204607 77 11 0.0 0.0 0.00 0.00 0.00 63 1011.9
20260906204103 76 1 0.9 1.7 0.00 0.00 0.00 55 1011.6
20260906203602 77 359 0.0 0.0 0.00 0.00 0.00 57 1011.9
20260906203056 78 346 0.0 0.9 0.00 0.00 0.00 52 1011.9
20260906202548 79 14 1.7 1.7 0.00 0.00 0.00 51 1011.9
20260906202047 81 335 0.0 0.0 0.00 0.00 0.00 49 1011.9
20260906201542 81 320 0.9 0.9 0.00 0.00 0.00 48 1011.8
20260906201041 80 346 0.9 0.9 0.00 0.00 0.00 50 1011.9
20260906200537 80 333 0.0 0.0 0.00 0.00 0.00 50 1011.9
20260906200033 81 12 0.9 0.9 0.00 0.00 0.00 48 1011.8
20260906195528 81 331 0.9 0.9 0.00 0.00 0.00 49 1011.9
20260906195025 80 343 0.0 0.9 0.00 0.00 0.00 51 1012.0
20260906194520 80 339 0.9 1.7 0.00 0.00 0.00 50 1011.9
20260906194016 80 333 0.9 0.9 0.00 0.00 0.00 50 1012.0
20260906193515 79 332 0.0 0.0 0.00 0.00 0.00 56 1012.0
20260906193011 81 345 0.9 0.9 0.00 0.00 0.00 51 1012.0
20260906192506 81 322 0.9 0.9 0.00 0.00 0.00 51 1012.0
20260906192005 81 137 1.7 1.7 0.00 0.00 0.00 51 1012.1
20260906191501 80 345 0.0 0.0 0.00 0.00 0.00 52 1011.9
20260906191000 80 346 0.9 1.7 0.00 0.00 0.00 54 1012.0
20260906190459 80 335 0.9 0.9 0.00 0.00 0.00 58 1012.1
20260906185954 79 37 1.7 2.6 0.00 0.00 0.00 56 1011.9
20260906185453 78 13 0.0 0.9 0.00 0.00 0.00 59 1012.1
20260906184952 80 23 0.0 0.0 0.00 0.00 0.00 60 1012.4
20260906184448 79 28 1.7 1.7 0.00 0.00 0.00 57 1012.3
20260906183942 78 354 0.9 1.7 0.00 0.00 0.00 59 1012.5
20260906183438 77 309 0.9 0.9 0.00 0.00 0.00 58 1012.4
20260906182933 78 126 1.7 1.7 0.00 0.00 0.00 57 1012.7
20260906182429 78 333 0.0 0.9 0.00 0.00 0.00 58 1012.7
20260906181925 77 331 0.9 1.7 0.00 0.00 0.00 63 1012.5
20260906181421 74 338 0.9 0.9 0.00 0.00 0.00 69 1012.3
20260906180917 75 354 0.0 0.0 0.00 0.00 0.00 68 1012.4
20260906180412 76 343 0.0 0.0 0.00 0.00 0.00 65 1012.4
20260906175909 78 341 0.9 1.7 0.00 0.00 0.00 63 1012.3
20260906175404 78 32 0.9 1.7 0.00 0.00 0.00 56 1012.4
20260906174902 77 355 0.0 0.0 0.00 0.00 0.00 59 1012.2
20260906174402 78 346 0.0 0.0 0.00 0.00 0.00 60 1012.5
20260906173857 77 309 0.9 0.9 0.00 0.00 0.00 59 1012.4
20260906173353 78 343 0.0 0.9 0.00 0.00 0.00 62 1012.5
20260906172851 79 344 0.0 0.9 0.00 0.00 0.00 62 1012.4
20260906172348 77 350 0.0 0.9 0.00 0.00 0.00 58 1012.4
20260906171843 77 279 1.7 1.7 0.00 0.00 0.00 65 1012.3
20260906171338 78 344 0.0 0.9 0.00 0.00 0.00 61 1012.7
20260906170834 78 179 0.9 0.9 0.00 0.00 0.00 67 1012.5
20260906170330 78 4 0.9 1.7 0.00 0.00 0.00 65 1012.5
20260906165825 77 290 1.7 3.5 0.00 0.00 0.00 66 1012.6
20260906165325 77 356 0.0 0.9 0.00 0.00 0.00 65 1012.7
20260906164820 77 284 0.9 0.9 0.00 0.00 0.00 70 1012.7
20260906164319 75 338 0.0 0.9 0.00 0.00 0.00 71 1012.7
20260906163815 76 13 0.0 0.0 0.00 0.00 0.00 68 1012.8
20260906163312 77 11 0.0 0.0 0.00 0.00 0.00 63 1012.7
20260906162809 78 292 0.9 1.7 0.00 0.00 0.00 67 1013.1
20260906162308 76 26 0.0 0.0 0.00 0.00 0.00 68 1012.7
20260906161803 76 27 0.9 0.9 0.00 0.00 0.00 69 1012.9
20260906161302 77 87 3.5 3.5 0.00 0.00 0.00 67 1013.0
20260906160801 77 310 0.9 0.9 0.00 0.00 0.00 67 1012.7
20260906160256 76 342 0.9 0.9 0.00 0.00 0.00 71 1013.0
20260906155753 76 44 0.9 1.7 0.00 0.00 0.00 69 1012.8
20260906155248 76 339 0.9 0.9 0.00 0.00 0.00 75 1013.1
20260906154744 75 350 0.0 0.0 0.00 0.00 0.00 72 1012.7
20260906154239 76 23 0.0 0.0 0.00 0.00 0.00 76 1013.0
20260906153737 75 5 1.7 1.7 0.00 0.00 0.00 71 1013.1
20260906153231 75 295 1.7 1.7 0.00 0.00 0.00 71 1012.9
20260906152726 75 335 0.0 0.9 0.00 0.00 0.00 73 1013.0
20260906152221 75 348 0.0 0.9 0.00 0.00 0.00 77 1013.1
20260906151715 75 9 0.0 0.0 0.00 0.00 0.00 77 1012.9
20260906151211 76 7 0.0 0.0 0.00 0.00 0.00 72 1012.9
20260906150707 74 7 0.0 0.0 0.00 0.00 0.00 81 1013.1
20260906150201 73 1 0.0 0.0 0.00 0.00 0.00 77 1012.9
20260906145700 73 0 0.0 0.0 0.00 0.00 0.00 78 1013.1
20260906145154 73 1 0.0 0.0 0.00 0.00 0.00 78 1012.7
20260906144654 74 7 0.0 0.9 0.00 0.00 0.00 82 1012.9
20260906144149 73 1 0.9 0.9 0.00 0.00 0.00 81 1012.8
20260906143649 74 7 0.0 0.9 0.00 0.00 0.00 77 1012.7
20260906143146 73 7 0.0 0.0 0.00 0.00 0.00 85 1012.9
20260906142646 73 8 0.0 0.0 0.00 0.00 0.00 85 1013.0
20260906142141 72 7 0.0 0.9 0.00 0.00 0.00 81 1012.9
20260906141639 71 5 0.0 0.9 0.00 0.00 0.00 82 1012.8
20260906141135 71 5 0.0 0.0 0.00 0.00 0.00 89 1012.8
20260906140634 72 5 0.0 0.9 0.00 0.00 0.00 90 1012.9
20260906140129 69 6 0.0 0.0 0.00 0.00 0.00 90 1012.8
20260906135626 68 5 0.0 0.0 0.00 0.00 0.00 93 1012.8
20260906135122 68 6 0.0 0.0 0.00 0.00 0.00 95 1012.7
20260906134618 66 6 0.0 0.9 0.00 0.00 0.00 94 1012.8
20260906134113 65 5 0.0 0.0 0.00 0.00 0.00 99 1012.7
20260906133608 65 4 0.9 0.9 0.00 0.00 0.00 99 1012.8
20260906133103 65 4 0.0 0.0 0.00 0.00 0.00 99 1012.8
20260906132558 65 4 0.0 0.0 0.00 0.00 0.00 99 1012.7
20260906132054 65 4 0.0 0.0 0.00 0.00 0.00 99 1012.7
20260906131549 65 1 0.0 0.0 0.00 0.00 0.00 99 1012.7
20260906131044 64 1 0.0 0.0 0.00 0.00 0.00 99 1012.8
20260906130544 62 0 0.0 0.0 0.00 0.00 0.00 99 1012.8
20260906130039 62 0 0.0 0.0 0.00 0.00 0.00 99 1012.7
20260906125536 62 0 0.0 0.0 0.00 0.00 0.00 99 1012.7
20260906125031 62 0 0.0 0.0 0.00 0.00 0.00 99 1012.9
20260906124526 62 0 0.0 0.0 0.00 0.00 0.00 99 1012.6
20260906124021 62 0 0.0 0.0 0.00 0.00 0.00 99 1012.8
20260906123520 62 0 0.0 0.0 0.00 0.00 0.00 99 1012.7
20260906123015 62 0 0.0 0.0 0.00 0.00 0.00 99 1012.3
20260906122509 62 3 0.0 0.0 0.00 0.00 0.00 99 1012.6
20260906122006 62 4 0.0 0.0 0.00 0.00 0.00 99 1012.6
20260906121501 62 4 0.0 0.0 0.00 0.00 0.00 99 1012.2
20260906120958 62 3 0.0 0.0 0.00 0.00 0.00 99 1012.2
20260906120453 61 4 0.0 0.0 0.00 0.00 0.00 99 1011.9
20260906115949 62 4 0.0 0.0 0.00 0.00 0.00 99 1012.1
20260906115444 62 4 0.0 0.0 0.00 0.00 0.00 99 1011.9
20260906114944 61 4 0.0 0.0 0.00 0.00 0.00 99 1012.1
20260906114439 61 4 0.0 0.0 0.00 0.00 0.00 99 1011.8
20260906113935 61 4 0.0 0.0 0.00 0.00 0.00 99 1011.9
20260906113433 61 4 0.0 0.0 0.00 0.00 0.00 99 1011.9
20260906112929 61 4 0.0 0.0 0.00 0.00 0.00 99 1011.6
20260906112424 61 3 0.0 0.0 0.00 0.00 0.00 99 1011.5
20260906111920 61 3 0.0 0.0 0.00 0.00 0.00 99 1011.5
20260906111419 61 3 0.0 0.0 0.00 0.00 0.00 99 1011.4
20260906110914 61 3 0.0 0.0 0.00 0.00 0.00 99 1011.3
20260906110410 61 3 0.0 0.0 0.00 0.00 0.00 99 1011.4
20260906105909 61 3 0.0 0.0 0.00 0.00 0.00 99 1011.4
20260906105405 61 3 0.0 0.0 0.00 0.00 0.00 99 1011.4
20260906104901 61 3 0.0 0.0 0.00 0.00 0.00 99 1011.3
20260906104359 61 3 0.0 0.0 0.00 0.00 0.00 99 1011.2
20260906103858 61 3 0.0 0.0 0.00 0.00 0.00 99 1011.3
20260906103356 61 3 0.0 0.0 0.00 0.00 0.00 99 1011.3
20260906102852 62 3 0.0 0.0 0.00 0.00 0.00 99 1011.1
20260906102351 62 3 0.0 0.0 0.00 0.00 0.00 99 1011.0
20260906101846 62 3 0.0 0.0 0.00 0.00 0.00 99 1011.2
20260906101341 62 3 0.0 0.0 0.00 0.00 0.00 99 1010.9
20260906100837 62 3 0.0 0.0 0.00 0.00 0.00 99 1010.9
20260906100336 62 3 0.0 0.0 0.00 0.00 0.00 99 1010.8
20260906095831 62 3 0.0 0.0 0.00 0.00 0.00 99 1010.9
20260906095327 62 3 0.0 0.0 0.00 0.00 0.00 99 1010.8
20260906094826 62 3 0.0 0.0 0.00 0.00 0.00 99 1010.6
20260906094321 62 3 0.0 0.0 0.00 0.00 0.00 99 1010.9
20260906093817 63 3 0.0 0.0 0.00 0.00 0.00 99 1010.6
20260906093313 63 3 0.0 0.0 0.00 0.00 0.00 99 1011.0
20260906092807 62 3 0.0 0.0 0.00 0.00 0.00 99 1010.9
20260906092305 63 3 0.0 0.0 0.00 0.00 0.00 99 1010.5
20260906091757 63 3 0.0 0.0 0.00 0.00 0.00 99 1010.8
20260906091253 63 3 0.0 0.0 0.00 0.00 0.00 99 1010.6
20260906090750 63 3 0.0 0.0 0.00 0.00 0.00 99 1010.6
20260906090248 63 3 0.0 0.0 0.00 0.00 0.00 99 1010.4
20260906085748 64 3 0.0 0.0 0.00 0.00 0.00 99 1010.6
20260906085248 63 3 0.0 0.0 0.00 0.00 0.00 99 1010.5
20260906084742 64 3 0.0 0.0 0.00 0.00 0.00 99 1010.2
20260906084236 64 3 0.0 0.0 0.00 0.00 0.00 99 1010.2
20260906083732 64 3 0.0 0.0 0.00 0.00 0.00 99 1010.3
20260906083227 64 3 0.0 0.0 0.00 0.00 0.00 99 1010.4
20260906082722 64 3 0.0 0.0 0.00 0.00 0.00 99 1010.4
20260906082217 64 3 0.0 0.0 0.00 0.00 0.00 99 1010.4
20260906081713 64 3 0.0 0.0 0.00 0.00 0.00 99 1010.3
20260906081208 64 3 0.0 0.0 0.00 0.00 0.00 99 1010.4
20260906080704 64 3 0.0 0.0 0.00 0.00 0.00 99 1010.1
20260906080200 64 3 0.0 0.0 0.00 0.00 0.00 99 1009.9
20260906075659 64 3 0.0 0.0 0.00 0.00 0.00 99 1010.0
20260906075148 64 3 0.0 0.0 0.00 0.00 0.00 99 1010.1
20260906074643 64 3 0.0 0.0 0.00 0.00 0.00 99 1010.0
20260906074142 64 3 0.0 0.0 0.00 0.00 0.00 99 1010.1
20260906073637 64 3 0.0 0.0 0.00 0.00 0.00 99 1010.3
20260906073133 64 3 0.0 0.0 0.00 0.00 0.00 99 1010.3
20260906072628 65 3 0.0 0.0 0.00 0.00 0.00 99 1010.0
20260906072124 65 3 0.0 0.0 0.00 0.00 0.00 99 1009.9
20260906071615 65 3 0.0 0.0 0.00 0.00 0.00 99 1010.0
20260906071114 65 3 0.0 0.0 0.00 0.00 0.00 99 1010.0
20260906070611 65 3 0.0 0.0 0.00 0.00 0.00 99 1009.8
20260906070106 65 3 0.0 0.0 0.00 0.00 0.00 99 1010.0
20260906065606 65 3 0.0 0.0 0.00 0.00 0.00 99 1009.8
20260906065101 65 3 0.0 0.0 0.00 0.00 0.00 99 1010.0
20260906064557 65 3 0.0 0.0 0.00 0.00 0.00 99 1010.2
20260906064047 65 3 0.0 0.0 0.00 0.00 0.00 99 1009.9
20260906063542 65 3 0.0 0.0 0.00 0.00 0.00 99 1010.0
20260906063038 65 3 0.0 0.0 0.00 0.00 0.00 99 1010.0
20260906062533 65 3 0.0 0.0 0.00 0.00 0.00 99 1010.0
20260906062027 65 3 0.0 0.0 0.00 0.00 0.00 99 1010.2
20260906061524 65 3 0.0 0.0 0.00 0.00 0.00 99 1010.1
20260906061022 65 3 0.0 0.0 0.00 0.00 0.00 99 1010.1
20260906060520 65 3 0.0 0.0 0.00 0.00 0.00 99 1010.3
20260906060016 65 3 0.0 0.0 0.00 0.00 0.00 99 1010.1
20260906055511 65 3 0.0 0.0 0.00 0.00 0.00 99 1010.0
20260906055006 65 3 0.0 0.0 0.00 0.00 0.00 99 1009.9
20260906054501 65 3 0.0 0.0 0.00 0.00 0.00 99 1009.8
20260906053956 66 3 0.0 0.0 0.00 0.00 0.00 99 1009.9
20260906053452 66 3 0.0 0.0 0.00 0.00 0.00 99 1010.1
20260906052943 66 3 0.0 0.0 0.00 0.00 0.00 99 1010.1
20260906052438 66 3 0.0 0.0 0.00 0.00 0.00 99 1010.0
20260906051935 66 3 0.0 0.0 0.00 0.00 0.00 99 1010.0
20260906051430 66 3 0.0 0.0 0.00 0.00 0.00 99 1009.6
20260906050926 66 3 0.0 0.0 0.00 0.00 0.00 99 1010.0
20260906050425 66 3 0.0 0.0 0.00 0.00 0.00 99 1009.9
20260906045925 66 3 0.0 0.0 0.00 0.00 0.00 99 1009.9
20260906045423 67 3 0.0 0.0 0.00 0.00 0.00 99 1009.9
20260906044919 67 3 0.0 0.0 0.00 0.00 0.00 99 1009.9
20260906044414 67 3 0.0 0.0 0.00 0.00 0.00 99 1009.9
20260906043910 67 3 0.0 0.0 0.00 0.00 0.00 99 1010.3
20260906043406 67 3 0.0 0.0 0.00 0.00 0.00 99 1010.0
20260906042901 67 3 0.0 0.0 0.00 0.00 0.00 99 1010.1
20260906042400 67 3 0.0 0.0 0.00 0.00 0.00 99 1010.2
20260906041855 67 3 0.0 0.0 0.00 0.00 0.00 99 1010.2
20260906041351 67 3 0.0 0.0 0.00 0.00 0.00 99 1010.2
20260906040850 68 3 0.0 0.9 0.00 0.00 0.00 99 1010.2
20260906040346 68 2 0.0 0.0 0.00 0.00 0.00 99 1010.3
20260906035841 68 2 0.0 0.0 0.00 0.30 0.30 99 1010.3
20260906035336 68 2 0.0 0.0 0.00 0.30 0.30 99 1010.5
20260906034832 68 2 0.0 0.0 0.00 0.30 0.30 99 1010.2
20260906034327 68 2 0.0 0.0 0.00 0.30 0.30 99 1010.4
20260906033823 68 2 0.0 0.0 0.00 0.30 0.30 99 1010.5
20260906033322 68 2 0.0 0.0 0.00 0.30 0.30 99 1010.4
20260906032819 68 2 0.0 0.0 0.00 0.30 0.30 99 1010.8
20260906032314 68 2 0.0 0.0 0.00 0.30 0.30 99 1010.5
20260906031809 68 2 0.0 0.0 0.00 0.30 0.30 99 1010.4
20260906031305 68 2 0.0 0.0 0.00 0.30 0.30 99 1010.4
20260906030804 68 2 0.0 0.0 0.00 0.30 0.30 99 1010.3
20260906030300 68 2 0.0 0.0 0.00 0.30 0.30 99 1010.3
20260906025759 68 2 0.0 0.0 0.00 0.30 0.30 99 1010.3
20260906025254 68 2 0.0 0.0 0.00 0.30 0.30 99 1010.1
20260906024752 68 2 0.0 0.0 0.00 0.30 0.30 99 1010.3
20260906024251 68 2 0.0 0.0 0.00 0.30 0.30 99 1010.0
20260906023747 68 2 0.0 0.0 0.00 0.30 0.30 99 1010.1
20260906023242 68 2 0.0 0.0 0.00 0.30 0.30 99 1010.2
20260906022738 68 2 0.0 0.0 0.00 0.30 0.30 99 1010.1
20260906022232 68 2 0.0 0.0 0.00 0.30 0.30 99 1010.0
20260906021729 68 2 0.0 0.0 0.00 0.30 0.30 99 1009.7
20260906021227 68 2 0.0 0.0 0.00 0.30 0.30 99 1010.0
20260906020722 68 2 0.0 0.0 0.00 0.30 0.30 99 1009.7
20260906020218 68 2 0.0 0.0 0.00 0.30 0.30 99 1009.6
20260906015717 68 2 0.0 0.0 0.00 0.30 0.30 99 1009.9
20260906015210 68 3 0.0 0.0 0.00 0.30 0.30 99 1009.6
20260906014710 69 3 0.0 0.0 0.00 0.30 0.30 99 1009.7
20260906014206 69 3 0.0 0.0 0.00 0.30 0.30 99 1009.6
20260906013656 69 3 0.0 0.0 0.00 0.30 0.30 99 1009.6
20260906013152 69 3 0.0 0.0 0.00 0.30 0.30 99 1009.4
20260906012651 69 3 0.0 0.0 0.00 0.30 0.30 99 1009.6
20260906012146 69 3 0.0 0.0 0.00 0.30 0.30 99 1009.4
20260906011642 69 3 0.0 0.0 0.00 0.30 0.30 99 1009.4
20260906011142 69 4 0.0 0.0 0.00 0.30 0.30 99 1009.4
20260906010637 69 3 0.0 0.0 0.00 0.30 0.30 99 1009.2
20260906010133 69 4 0.0 0.0 0.00 0.30 0.30 99 1009.3
20260906005632 69 4 0.0 0.0 0.00 0.30 0.30 99 1009.1
20260906005127 69 4 0.0 0.0 0.00 0.30 0.30 99 1009.0
20260906004626 69 4 0.0 0.0 0.00 0.30 0.30 99 1009.1
20260906004121 69 4 0.0 0.0 0.00 0.30 0.30 99 1008.9
20260906003616 69 4 0.0 0.0 0.00 0.30 0.30 99 1008.9
20260906003112 69 4 0.0 0.0 0.00 0.30 0.30 99 1009.0
20260906002607 69 4 0.0 0.0 0.00 0.30 0.30 99 1008.9
20260906002101 69 4 0.0 0.0 0.00 0.30 0.30 99 1008.8
20260906001556 69 4 0.0 0.0 0.00 0.30 0.30 99 1008.6
20260906001051 69 4 0.0 0.0 0.00 0.30 0.30 99 1008.9
20260906000548 69 4 0.0 0.0 0.00 0.30 0.30 99 1008.9
20260906000042 69 4 0.0 0.0 0.00 0.30 0.30 99 1008.8
20260905235536 69 4 0.0 0.0 0.00 0.30 0.30 99 1008.6
20260905235031 69 4 0.0 0.0 0.00 0.30 0.30 99 1008.6
20260905234527 70 4 0.0 0.0 0.00 0.30 0.30 99 1008.6
20260905234027 70 4 0.0 0.0 0.00 0.30 0.30 99 1008.6
20260905233522 70 4 0.0 0.0 0.00 0.30 0.30 99 1008.9
20260905233021 70 4 0.0 0.0 0.00 0.30 0.30 99 1008.9
20260905232517 70 4 0.0 0.0 0.00 0.30 0.30 99 1008.8
20260905232013 71 4 0.0 0.0 0.00 0.30 0.30 99 1008.9
20260905231507 71 4 0.0 0.0 0.00 0.30 0.30 99 1008.7
20260905231004 71 4 0.0 0.0 0.00 0.30 0.30 99 1008.8
20260905230502 71 4 0.0 0.0 0.00 0.30 0.30 99 1008.6
20260905230001 71 4 0.0 0.0 0.00 0.30 0.30 99 1008.6
20260905225455 71 4 0.0 0.0 0.00 0.30 0.30 99 1008.5
20260905224950 71 4 0.0 0.0 0.00 0.30 0.30 99 1008.5
20260905224446 72 4 0.0 0.0 0.00 0.30 0.30 99 1008.7
20260905223945 72 4 0.0 0.0 0.00 0.30 0.30 99 1008.6
20260905223443 72 4 0.0 0.0 0.00 0.30 0.30 99 1008.7
20260905222943 71 4 0.0 0.0 0.00 0.30 0.30 99 1008.6
20260905222438 72 4 0.0 0.0 0.00 0.30 0.30 99 1008.6
20260905221934 72 4 0.0 0.0 0.00 0.30 0.30 99 1008.6
20260905221430 72 4 0.0 0.0 0.00 0.30 0.30 99 1008.4
20260905220926 72 4 0.0 0.0 0.00 0.30 0.30 99 1008.5
20260905220422 72 4 0.0 0.0 0.00 0.30 0.30 99 1008.5
20260905215921 72 4 0.0 0.0 0.00 0.30 0.30 99 1008.2
20260905215416 71 4 0.0 0.0 0.00 0.30 0.30 97 1008.6
20260905214913 72 4 0.0 0.0 0.00 0.30 0.30 99 1008.3